Погода в Чайяпхуме

Таиланд     15°48′06″N   102°02′07″E
темп.,
°C
ветер,
м/с
пор.,
м/с
влажн.,
%
обл.,
%
осадки,
мм/ч
давл.,
гПа
погр.,
м
22 января, пт
пт2201:00+20зсз114947 0.0 101023
04:00+19сз00540 0.0 101023
07:00+18ссв11550 0.0 101123
10:00+27в333313 0.0 1013634
13:00+32в21257 0.0 10101981
16:00+33ююв11220 0.0 10072525
19:00+26вюв12310 0.0 100824
22:00+23св223887 0.0 101023
23 января, сб
сб2301:00+21сз114288 0.0 101023
04:00+20св224690 0.0 100923
07:00+19всв235195 0.0 101132
10:00+28в34334 0.0 1013676
13:00+32юв33272 0.0 10102111
16:00+33ююв23211 0.0 10072676
19:00+27всв23320 0.0 100824
22:00+24ссв12410 0.0 101023
24 января, вс
вс2401:00+22всв11450 0.0 101023
04:00+21ссз01503 0.0 101023
07:00+21с224915 0.0 101223
10:00+29всв22323 0.0 1013766
13:00+34вюв01262 0.0 10112072
16:00+34ю12240 0.0 10072470
19:00+28ю11330 0.0 100824
22:00+25зюз00405 0.0 101024
25 января, пн
пн2501:00+24ссз12443 0.0 101024
04:00+23сз11490 0.0 101023
07:00+21с11540 0.0 101123
10:00+31св11320 0.0 1013633
13:00+35ю01240 0.0 10102399
16:00+35юз11220 0.0 10072673
19:00+29в22310 0.0 100724
22:00+25сз11370 0.0 101024
26 января, вт
вт2601:00+25ссв23370 0.0 100924
04:00+23вюв22440 0.0 100923
07:00+22всв44500 0.0 101184
10:00+28всв56410 0.0 1013740
13:00+33всв55310 0.0 10101544
16:00+34всв44250 0.0 10062353
19:00+28всв33360 0.0 100724
22:00+26ссв34410 0.0 101032